World > North America > United States > Texas > Murphy  

Murphy, TX Hourly Weather Updates

Feedback E-mail the Weather

Quick Clicks

Murphy, TX Weather Maps

°F °C°F °C
Murphy Weather Map
UTC Time: 4/23/2024, 18:05
Your Time:

Murphy, TX Regional Weather

Expires:202404231900;;249219
ASUS44 KFWD 231803
RWRTX 
NORTH TEXAS HOURLY WEATHER ROUNDUP
NATIONAL WEATHER SERVICE FORT WORTH TX
100 PM CDT TUE APR 23 2024

NOTE: "FAIR" INDICATES FEW OR NO CLOUDS BELOW 12,000 FEET WITH NO
SIGNIFICANT WEATHER AND/OR OBSTRUCTIONS TO VISIBILITY.


TXZ091>094-102>105-117-120-121-131>134-231900-
NORTH CENTRAL TEXAS
  
CITY           SKY/WX    TMP DP  RH WIND       PRES   REMARKS
SHRMAN/DENISON MOSUNNY   73  59  60 S23G31    29.96F                  
GAINESVILLE    CLOUDY    69  59  69 S22       29.97F                  
6HR MIN TEMP:  51; 6HR MAX TEMP:  69;                                

BOWIE          FAIR      72  60  64 S18       29.94F                  
6HR MIN TEMP:  53; 6HR MAX TEMP:  72;                                

DECATUR        PTSUNNY   71  57  61 S16G22    29.96F                  
6HR MIN TEMP:  55; 6HR MAX TEMP:  71;                                

DENTON         FAIR      73  61  65 S17G31    29.97F                  
6HR MIN TEMP:  57; 6HR MAX TEMP:  73;                                

MCKINNEY       FAIR      74  59  59 S20G30    29.98F                  
6HR MIN TEMP:  56; 6HR MAX TEMP:  74;                                

BONHAM         FAIR      73  59  62 S20G25    29.98F                  
6HR MIN TEMP:  55; 6HR MAX TEMP:  73;                                

GREENVILLE     FAIR      72  59  64 S18G26    30.01F                  
6HR MIN TEMP:  54; 6HR MAX TEMP:  73;                                

ROCKWALL       FAIR      72  58  62 S22G28    30.01F                  
6HR MIN TEMP:  55; 6HR MAX TEMP:  72;                                

TERRELL        FAIR      72  57  59 S18G25    30.02F                  
6HR MIN TEMP:  54; 6HR MAX TEMP:  73; 6HR PCP: TRACE;                

WAXAHACHIE     FAIR      72  62  70 S17G24    30.03F                  
6HR MIN TEMP:  53; 6HR MAX TEMP:  72;                                

CLEBURNE       CLOUDY    72  63  73 S21G28    29.99F                  
GRANBURY       CLOUDY    73  59  61 S16G24    29.99F                  
6HR MIN TEMP:  57; 6HR MAX TEMP:  73;                                

$$


SKY/WX - Weather  TMP - Temperature  DP - Dew Point  RH - Humidity
WIND - Wind Direction/Speed PRES - Barometric Pressure VSB - Visibility
WCI - Wind Chill Index E13G22 Wind - East Wind 13 mph/Gusts of 22 mph

Trending Headlines

Trending Entertainment Headlines

Murphy Radar Loop

Use the map search tool if you want to place a location marker on the radar map...

Murphy Quick Facts

National Two Day Weather Forecast


E-mail the Murphy Weather Forecast

Voice your opinion or tell us about page issues...